Flag for Greece Weather past 2 weeks in Kalamata, Greece

61 °F

Passing clouds.

Feels Like: 61 °F
Forecast: 62 / 80 °F
Wind: No wind

Location: Kalamata Airport

Current Time: Oct 9, 2015 at 8:42:14 AM

Latest Report: Oct 9, 2015 at 7:50 AM

Visibility: N/A

Pressure: 29.98 "Hg

Humidity: 88%

Dew point: 57 °F

Location of KalamataLocation

Historic Weather in Kalamata — Graph


Kalamata temperature yesterday

Maximum temperature yesterday: 86 °F (at 2:50 PM)
Minimum temperature yesterday: 61 °F (at 7:50 AM)
Average temperature yesterday: 73 °F

Past Weeks' High & Low Weather Summary

High86 °F (Oct 5, 2:20 PM)100% (Sep 26, 3:20 PM)30.27 "Hg (Sep 26, 3:20 PM)
Low55 °F (Sep 26, 3:20 PM)32% (Sep 28, 1:20 PM)29.77 "Hg (Oct 7, 4:20 PM)
Average71 °F69%30.00 "Hg
* Reported Sep 24 7:20 AM — Oct 9 7:20 AM, Kalamata, Weather by CustomWeather, © 2015

Note: Actual official high and low records may vary slightly from our data, if they occured in-between our weather recording intervals... More about our weather records


Kalamata weather history for previous 24 hours

Time TempWeatherWind HumidityBarometerVisibility
7:20 AM
Fri, Oct 9
61 °FPassing clouds.No wind94%29.98 "HgN/A
6:50 AM61 °FPassing clouds.No wind94%29.98 "HgN/A
6:20 AM61 °FPassing clouds.No wind94%29.98 "HgN/A
5:50 AM63 °FPassing clouds.No wind88%29.98 "HgN/A
5:20 AM63 °FPassing clouds.No wind88%29.98 "HgN/A
4:50 AM64 °FPassing clouds.No wind88%29.98 "HgN/A
4:20 AM64 °FPassing clouds.5 mph88%29.98 "HgN/A
3:50 AM64 °FPassing clouds.No wind88%29.98 "HgN/A
3:20 AM64 °FPassing clouds.No wind88%29.98 "HgN/A
2:50 AM64 °FPassing clouds.No wind88%29.98 "HgN/A
2:20 AM64 °FPassing clouds.No wind88%29.98 "HgN/A
1:50 AM64 °FPassing clouds.5 mph88%29.98 "HgN/A
1:20 AM66 °FPassing clouds.No wind83%29.98 "HgN/A
11:50 PM
Thu, Oct 8
64 °FPassing clouds.No wind88%29.98 "HgN/A
11:20 PM66 °FPassing clouds.No wind83%29.98 "HgN/A
10:50 PM66 °FPassing clouds.No wind83%29.98 "HgN/A
10:20 PM70 °FPassing clouds.No wind73%29.98 "HgN/A
9:50 PM72 °FPassing clouds.No wind73%29.98 "HgN/A
9:20 PM72 °FPassing clouds.5 mph73%29.98 "HgN/A
8:50 PM73 °FPassing clouds.5 mph69%29.95 "HgN/A
8:20 PM73 °FPassing clouds.7 mph69%29.95 "HgN/A
7:50 PM73 °FPassing clouds.6 mph65%29.95 "HgN/A
7:20 PM75 °FPassing clouds.6 mph61%29.92 "HgN/A
6:50 PM75 °FPassing clouds.5 mph57%29.92 "HgN/A
6:20 PM79 °FPassing clouds.No wind51%29.92 "HgN/A
5:50 PM81 °FPassing clouds.No wind42%29.89 "HgN/A
5:20 PM81 °FScattered clouds.7 mph39%29.89 "HgN/A
4:50 PM82 °FScattered clouds.6 mph42%29.89 "HgN/A
4:20 PM82 °FScattered clouds.7 mph37%29.89 "HgN/A
3:50 PM84 °FScattered clouds.6 mph35%29.89 "HgN/A
3:20 PM84 °FScattered clouds.7 mph37%29.89 "HgN/A
2:50 PM86 °FScattered clouds.7 mph35%29.89 "HgN/A
2:20 PM84 °FScattered clouds.6 mph35%29.89 "HgN/A
1:50 PM84 °FScattered clouds.5 mph40%29.89 "HgN/A
1:20 PM82 °FScattered clouds.No wind45%29.89 "HgN/A
12:50 PM81 °FPassing clouds.No wind51%29.89 "HgN/A
12:20 PM81 °FPassing clouds.No wind48%29.89 "HgN/A
11:50 AM79 °FPassing clouds.No wind58%29.89 "HgN/A
11:20 AM79 °FPassing clouds.5 mph61%29.89 "HgN/A
10:50 AM73 °FPassing clouds.No wind74%29.86 "HgN/A
10:20 AM73 °FPassing clouds.No wind74%29.86 "HgN/A
9:50 AM72 °FPassing clouds.No wind83%29.86 "HgN/A
9:20 AM68 °FScattered clouds.No wind83%29.86 "HgN/A
8:50 AM64 °FScattered clouds.No wind94%29.86 "HgN/A
8:20 AM63 °FPassing clouds.No wind94%29.83 "HgN/A
Weather by CustomWeather, © 2015

See weather overviewHow to use our weather pages